Regional Weather Roundup
Issued by NWS Memphis, TN

Home | Current Version | Previous Version | Text Only | Print | Product List | Glossary On
Versions: 1 2 3 4 5 6 7 8 9 10 11 12 13 14 15 16 17 18 19 20 21 22 23 24 25 26 27 28 29 30 31 32 33 34 35 36 37 38 39 40 41 42 43 44 45 46 47 48 49 50
000
ASUS44 KMEG 011310
RWRMEG
MEMPHIS CWA HOURLY WEATHER ROUNDUP
NATIONAL WEATHER SERVICE MEMPHIS TN
800 AM CDT SUN MAY 01 2016

...WEST TENNESSEE...

CITY           SKY/WX    TMP DP  RH WIND       PRES   REMARKS
MEMPHIS INTL   MOSUNNY   69  65  86 SW7       29.91R
NWS MEMPHIS      N/A     68 N/A N/A MISG        N/A
JACKSON        MOSUNNY   67  64  90 S3        29.92R
LEXINGTON      CLOUDY    66  66 100 S6        29.93S
DYERSBURG      SUNNY     68  64  88 SW5         N/A
UNION CITY     CLOUDY    64  64 100 SW6       29.91R


...EASTERN ARKANSAS...

CITY           SKY/WX    TMP DP  RH WIND       PRES   REMARKS
JONESBORO      CLOUDY    66  63  90 NW3       29.89S
WEST MEMPHIS   PTSUNNY   67  67 100 S5        29.91R
BATESVILLE     SUNNY     61  59  94 W3        29.94R
NEWPORT        SUNNY     65  62  90 NW9       29.93R
WALNUT RIDGE   SUNNY     63  57  82 W9        29.91R
BLYTHEVILLE    MOSUNNY   68  65  90 SW9       29.90S
SEARCY         SUNNY     66  60  81 VRB6      29.93S
STUTTGART      CLOUDY    66  61  82 N10       29.92R
PINE BLUFF     PTSUNNY   68  64  87 N6        29.91R
MONTICELLO     CLOUDY    70  68  93 CALM      29.89F FOG


...NORTH MISSISSIPPI...

CITY           SKY/WX    TMP DP  RH WIND       PRES   REMARKS
TUPELO         CLOUDY    67  62  84 SE7       29.94R
OXFORD         CLOUDY    64  64 100 S3        29.95R
BATESVILLE     CLOUDY    65  64  97 CALM      29.93S
OLIVE BRANCH   PTSUNNY   64  64 100 SW6       29.93R
TUNICA         CLOUDY    64  64 100 SE3       29.92S
CORINTH        CLOUDY    66  64  94 SE5       29.94R
GREENWOOD      CLOUDY    69  64  84 S6        29.92R
COLUMBUS       TSTM      66  64  94 S7        29.97R FOG
GOLDEN TRIANGL SHOWER    66  63  88 S5        29.97R


...SOUTHEAST MISSOURI...

CITY           SKY/WX    TMP DP  RH WIND       PRES   REMARKS
KENNETT        CLOUDY    68  66  94 SW7       29.89R FOG
WEST PLAINS    SUNNY     57  51  80 NW7       29.94R
POPLAR BLUFF   CLOUDY    64  61  90 W3        29.90R
CAPE GIRARDEAU MOSUNNY   66  63  90 S7        29.89R


...NORTHWEST ALABAMA...

CITY           SKY/WX    TMP DP  RH WIND       PRES   REMARKS


...MIDDLE TENNESSEE...

CITY           SKY/WX    TMP DP  RH WIND       PRES   REMARKS
NASHVILLE      CLOUDY    68  63  84 S6        29.96R
CLARKSVILLE    CLOUDY    65  64  97 CALM      29.94R FOG
COLUMBIA       PTSUNNY  N/A N/A N/A S5        29.95R


...WESTERN KENTUCKY...

CITY           SKY/WX    TMP DP  RH WIND       PRES   REMARKS
PADUCAH        CLOUDY    65  61  87 SE3       29.90R
FORT CAMPBELL  CLOUDY    65  65 100 SW2       29.93S FOG


...CENTRAL ARKANSAS...

CITY           SKY/WX    TMP DP  RH WIND       PRES   REMARKS
LITTLE ROCK    MOSUNNY   68  62  81 NW6       29.93R


SKY/WX REPORTED AS FAIR MEANS FEW OR NO CLOUDS BELOW
12 THOUSAND FEET.





USA.gov is the U.S. government's official web portal to all federal, state and local government web resources and services.